Date String (YYYY-MM-DD hh:mm:ss) UTC,Instrument flags,Ambient pressure (hPa),Sample flow (lpm),Bypass flow (lpm),Sample temperature (°C),Ambient temperature (°C),ASC tube jacket temperature (°C),LED temperature (°C),Box temperature (°C),Sample RH (%),Span deviation,Mass concentration (μg/m³),Mass concentration (μg/m³),Mass concentration (μg/m³)
DateTimeUTC,F1_M11,P_M11,Q1_M11,Q2_M11,T1_M11,T2_M11,T3_M11,T4_M11,T5_M11,U1_M11,ZSPAN_M11,X2_M11,X0_M11,X1_M11
2022-03-22 15:00:00,,0829.2,4.99,0.00,22.0,21.4,00.0,31.1,23.7,09.4,0000.0,0001.01,0002.71,0000.68
2022-03-22 15:01:00,,0829.0,5.01,0.00,22.0,21.3,00.0,31.1,23.6,09.4,0000.0,0000.98,0001.75,0000.67
2022-03-22 15:02:00,,0829.1,5.01,0.00,22.0,21.2,00.0,31.1,23.6,09.4,0000.0,0001.01,0001.88,0000.67
2022-03-22 15:03:00,,0829.0,4.99,0.00,21.9,21.1,00.0,31.1,23.5,09.4,0000.0,0001.01,0001.85,0000.66
2022-03-22 15:04:00,,0829.3,5.00,0.00,21.9,21.1,00.0,31.1,23.5,09.2,0000.0,0001.01,0001.81,0000.66
2022-03-22 15:05:00,,0829.2,5.01,0.00,21.9,21.0,00.0,31.0,23.4,09.4,0000.0,0000.98,0001.67,0000.64
2022-03-22 15:06:00,,0828.7,4.99,0.00,21.8,21.0,00.0,31.0,23.4,09.3,0000.0,0001.01,0001.78,0000.64
2022-03-22 15:07:00,,0828.9,5.00,0.00,21.8,20.9,00.0,31.0,23.4,09.2,0000.0,0001.01,0001.76,0000.63
2022-03-22 15:08:00,,0829.1,5.01,0.00,21.8,20.9,00.0,31.0,23.3,09.2,0000.0,0000.98,0001.68,0000.62
2022-03-22 15:09:00,,0829.0,5.00,0.00,21.8,21.5,00.0,31.0,23.5,09.3,0000.0,0000.95,0001.58,0000.62
2022-03-22 15:10:00,,0828.7,5.01,0.00,22.0,22.6,00.0,31.0,23.9,09.1,0000.0,0000.90,0001.45,0000.61
2022-03-22 15:11:00,,0828.8,4.99,0.00,22.1,23.2,00.0,31.1,24.1,09.0,0000.0,0000.87,0001.42,0000.60
2022-03-22 15:12:00,,0828.8,5.01,0.00,22.2,23.0,00.0,31.1,24.1,08.7,0000.0,0000.88,0001.52,0000.60
2022-03-22 15:13:00,,0828.8,5.01,0.00,22.2,22.6,00.0,31.1,23.9,08.7,0000.0,0000.85,0001.47,0000.59
2022-03-22 15:14:00,,0829.0,4.99,0.00,22.1,22.2,00.0,31.1,23.8,08.9,0000.0,0000.85,0003.98,0000.58
2022-03-22 15:15:00,,0829.2,5.01,0.00,22.1,21.9,00.0,31.1,23.7,09.1,0000.0,0000.85,0005.02,0000.57
2022-03-22 15:16:00,,0829.0,5.00,0.00,22.0,21.7,00.0,31.1,23.6,09.2,0000.0,0000.83,0004.97,0000.58
2022-03-22 15:17:00,,0828.7,4.99,0.00,22.0,21.5,00.0,31.1,23.6,09.0,0000.0,0000.79,0004.84,0000.58
2022-03-22 15:18:00,,0828.7,5.00,0.00,22.0,21.3,00.0,31.0,23.5,08.8,0000.0,0000.79,0004.84,0000.58
2022-03-22 15:19:00,,0828.7,5.00,0.00,21.9,21.2,00.0,31.0,23.5,08.8,0000.0,0000.80,0004.92,0000.57
2022-03-22 15:20:00,,0828.6,5.01,0.00,21.9,21.1,00.0,31.0,23.4,08.9,0000.0,0000.81,0004.94,0000.57
2022-03-22 15:21:00,,0828.7,5.00,0.00,21.8,21.0,00.0,31.0,23.4,09.0,0000.0,0000.84,0005.00,0000.57
2022-03-22 15:22:00,,0828.7,5.01,0.00,21.8,20.9,00.0,31.0,23.3,09.2,0000.0,0000.86,0005.06,0000.58
2022-03-22 15:23:00,,0828.7,5.00,0.00,21.7,20.9,00.0,31.0,23.3,08.9,0000.0,0000.85,0005.00,0000.58
2022-03-22 15:24:00,,0828.7,5.00,0.00,21.7,20.8,00.0,30.9,23.2,08.8,0000.0,0000.82,0004.85,0000.58
2022-03-22 15:25:00,,0828.7,5.00,0.00,21.6,20.7,00.0,30.9,23.2,09.0,0000.0,0000.84,0003.13,0000.59
2022-03-22 15:26:00,,0828.9,5.01,0.00,21.7,21.3,00.0,30.9,23.3,08.8,0000.0,0000.82,0001.31,0000.59
2022-03-22 15:27:00,,0828.9,5.01,0.00,21.8,22.4,00.0,30.9,23.7,09.1,0000.0,0000.84,0001.36,0000.59
2022-03-22 15:28:00,,0828.7,4.99,0.00,22.0,23.2,00.0,31.0,24.0,08.8,0000.0,0000.84,0001.39,0000.57
2022-03-22 15:29:00,,0828.9,5.01,0.00,22.1,22.9,00.0,31.0,24.0,08.6,0000.0,0000.85,0001.48,0000.57
2022-03-22 15:30:00,,0829.0,4.98,0.00,22.0,22.5,00.0,31.0,23.8,08.5,0000.0,0000.84,0001.43,0000.57
2022-03-22 15:31:00,,0829.1,5.00,0.00,22.0,22.1,00.0,31.0,23.7,08.5,0000.0,0000.84,0001.96,0000.57
2022-03-22 15:32:00,,0829.1,5.00,0.00,21.9,21.8,00.0,31.0,23.6,08.7,0000.0,0000.81,0002.96,0000.56
2022-03-22 15:33:00,,0828.8,5.00,0.00,21.9,21.6,00.0,31.0,23.5,08.7,0000.0,0000.80,0002.97,0000.55
2022-03-22 15:34:00,,0828.7,5.00,0.00,21.8,21.4,00.0,31.0,23.4,08.4,0000.0,0000.81,0003.00,0000.55
2022-03-22 15:35:00,,0828.7,4.99,0.00,21.8,21.2,00.0,31.0,23.3,08.5,0000.0,0000.81,0003.00,0000.55
2022-03-22 15:36:00,,0829.0,5.01,0.00,21.7,21.0,00.0,30.9,23.2,08.6,0000.0,0000.79,0002.98,0000.55
2022-03-22 15:37:00,,0828.9,5.00,0.00,21.7,20.8,00.0,30.9,23.2,08.7,0000.0,0000.76,0002.90,0000.53
2022-03-22 15:38:00,,0829.3,5.00,0.00,21.6,20.7,00.0,30.9,23.1,08.7,0000.0,0000.74,0002.86,0000.53
2022-03-22 15:39:00,,0828.9,5.00,0.00,21.6,20.7,00.0,30.8,23.1,09.0,0000.0,0000.73,0002.85,0000.53
2022-03-22 15:40:00,,0829.1,5.00,0.00,21.6,20.6,00.0,30.8,23.0,08.9,0000.0,0000.77,0002.89,0000.54
2022-03-22 15:41:00,,0829.0,5.01,0.00,21.5,20.8,00.0,30.8,23.1,08.8,0000.0,0000.77,0003.36,0000.54
2022-03-22 15:42:00,,0829.0,5.00,0.00,21.7,21.9,00.0,30.8,23.4,08.8,0000.0,0000.77,0003.43,0000.54
2022-03-22 15:43:00,,0829.0,5.00,0.00,21.9,22.9,00.0,30.9,23.8,08.9,0000.0,0000.77,0001.86,0000.54
2022-03-22 15:44:00,,0828.9,5.00,0.00,22.0,23.2,00.0,30.9,23.9,08.7,0000.0,0000.78,0001.88,0000.54
2022-03-22 15:45:00,,0828.8,4.99,0.00,22.0,22.8,00.0,30.9,23.9,08.6,0000.0,0000.75,0001.77,0000.53
2022-03-22 15:46:00,,0828.9,5.00,0.00,22.0,22.4,00.0,30.9,23.8,08.4,0000.0,0000.73,0001.73,0000.52
2022-03-22 15:47:00,,0828.9,5.01,0.00,21.9,22.0,00.0,30.9,23.6,08.5,0000.0,0000.75,0001.79,0000.52
2022-03-22 15:48:00,,0828.9,4.99,0.00,21.9,21.7,00.0,30.9,23.5,08.4,0000.0,0000.76,0001.83,0000.51
2022-03-22 15:49:00,,0828.9,5.00,0.00,21.9,21.5,00.0,30.9,23.4,08.6,0000.0,0000.77,0001.95,0000.51
2022-03-22 15:50:00,,0829.0,5.01,0.00,21.8,21.3,00.0,30.9,23.4,08.5,0000.0,0000.77,0002.03,0000.52
2022-03-22 15:51:00,,0829.1,5.00,0.00,21.8,21.2,00.0,30.9,23.3,08.7,0000.0,0000.73,0002.43,0000.52
2022-03-22 15:52:00,,0828.9,4.98,0.00,21.7,21.1,00.0,30.9,23.2,08.7,0000.0,0000.71,0001.92,0000.51
2022-03-22 15:53:00,,0828.9,5.00,0.00,21.7,21.0,00.0,30.9,23.2,08.5,0000.0,0000.72,0001.84,0000.51
2022-03-22 15:54:00,,0829.0,4.99,0.00,21.6,20.9,00.0,30.8,23.2,08.5,0000.0,0000.74,0001.88,0000.51
2022-03-22 15:55:00,,0829.0,5.01,0.00,21.6,20.8,00.0,30.8,23.1,08.4,0000.0,0000.74,0001.88,0000.51
2022-03-22 15:56:00,,0828.9,5.00,0.00,21.6,20.7,00.0,30.8,23.1,08.7,0000.0,0000.73,0001.86,0000.50
2022-03-22 15:57:00,,0829.0,4.99,0.00,21.5,20.6,00.0,30.8,23.1,08.9,0000.0,0000.74,0001.90,0000.51
2022-03-22 15:58:00,,0828.8,5.01,0.00,21.6,21.3,00.0,30.8,23.2,08.6,0000.0,0000.72,0002.53,0000.51
2022-03-22 15:59:00,,0829.1,5.00,0.00,21.7,22.3,00.0,30.8,23.5,08.5,0000.0,0000.71,0002.66,0000.51
